CAPE
0 0 0 0 0 0 0 0 0 0 0 0 0 0 0 0 0 0 0 0 0 0 0 0 0 0 0 0 0 0 0 0 0 0 0 0 0 0 0 0 0 0 0 0 0 0 0 0 0 0 0 38 68 238
0 0 0 1 3 0 0 0 0 0 0 0 0 0 0 0 0 0 0 0 0 0 0 0 0 0 0 0 0 0 0 0 0 0 1 25 2 4 0 0 0 0 39 2 25 0 0 0 0 0 302 302 326 146
0 0 0 0 4 11 0 0 0 0 0 0 0 0 0 0 0 0 0 0 0 0 0 0 0 0 0 0 0 0 0 0 0 1 0 8 43 54 40 2 0 0 0 0 0 0 0 0 0 195 506 445 563 364
0 0 0 1 2 2 2 0 1 0 0 0 0 0 0 0 0 0 0 0 0 0 0 0 0 0 0 0 0 0 0 0 0 8 2 3 39 17 22 19 0 0 0 0 0 0 0 0 0 0 97 250 952 1494
0 0 0 0 0 2 2 5 3 4 0 0 0 0 0 0 0 0 0 0 0 0 0 0 0 0 0 3 71 77 76 1 0 4 3 0 0 23 4 6 0 0 0 0 0 0 0 0 0 0 27 551 1618 2379
0 0 0 0 0 3 2 10 14 3 0 0 0 0 0 0 0 0 0 0 0 0 0 0 0 0 0 0 0 53 34 21 8 0 0 0 0 21 41 2 0 0 0 0 0 0 0 0 4 298 231 827 1052 1970
0 0 0 0 0 3 2 2 9 6 0 1 0 0 0 0 0 0 0 0 0 0 0 0 0 0 0 0 0 43 17 43 1 2 18 0 0 41 14 0 0 0 0 2 0 0 0 22 81 385 172 633 408 504
0 0 0 0 0 0 1 1 0 0 5 2 0 0 0 0 0 0 0 3 5 1 0 0 0 0 0 0 0 5 2 26 17 0 1 0 0 9 9 0 0 0 0 0 0 2 32 119 140 71 81 132 9 212
0 0 0 0 0 0 2 0 0 3 2 0 0 0 0 0 0 1 6 15 30 0 0 0 0 0 0 0 0 0 0 0 0 0 0 0 0 0 6 11 7 19 5 5 41 293 166 86 77 41 63 69 108 237
0 0 0 0 0 0 0 2 1 0 9 0 0 0 0 0 12 1 0 2 0 0 0 0 0 0 0 0 0 0 0 1 22 18 1 0 0 34 6 0 1 5 0 0 37 133 324 102 191 27 82 424 279 318
0 0 0 0 0 1 1 3 3 2 0 0 0 0 0 0 0 0 8 0 0 0 0 0 0 0 0 0 0 1 0 0 0 5 0 0 0 0 11 61 21 16 9 39 68 71 128 27 9 24 111 55 136 247
0 0 0 0 0 2 4 5 15 16 1 0 0 0 0 0 0 0 0 0 0 0 0 0 1 0 0 0 0 4 0 0 21 1 46 3 0 36 65 37 40 27 38 85 158 206 437 94 17 70 42 61 119 337
0 0 0 0 1 1 7 21 11 8 0 7 0 0 0 0 0 0 0 15 31 29 8 17 0 0 0 2 0 0 0 11 7 5 13 37 22 87 185 302 234 191 159 169 229 321 196 75 211 271 366 203 767 1022
0 0 0 1 14 25 16 0 2 1 10 3 0 0 0 0 0 0 11 38 42 28 18 5 0 0 0 0 0 0 0 23 31 73 33 32 41 108 203 295 181 173 387 406 520 694 782 708 710 766 931 968 981 813
0 0 4 8 5 3 0 0 5 19 31 1 0 0 0 0 0 6 13 24 76 26 21 0 0 0 1 3 8 1 0 20 0 9 17 5 6 160 374 291 183 168 237 474 447 524 519 571 622 590 503 494 505 523
0 0 4 4 6 2 2 5 17 16 8 0 0 0 0 0 0 0 0 29 62 34 15 0 0 0 10 0 17 16 8 0 0 19 25 38 40 125 263 226 121 142 141 123 245 364 361 350 399 489 490 393 371 299
0 0 0 2 3 6 20 19 6 15 14 0 0 0 0 0 0 0 0 2 45 19 13 5 0 0 1 2 0 0 0 0 17 23 37 63 58 91 123 48 1 45 64 35 116 141 144 201 225 262 233 220 168 162
0 2 3 8 13 12 14 18 18 1 0 0 0 0 0 0 0 0 6 60 48 30 12 6 0 0 0 0 0 0 0 0 26 31 64 84 52 40 1 0 0 0 0 0 1 12 112 43 39 41 13 9 110 77
2 2 1 1 6 8 4 1 0 0 0 0 0 0 0 0 0 0 0 37 35 24 12 17 0 0 0 0 0 0 0 12 18 55 106 146 111 97 92 61 0 0 0 0 0 0 0 0 0 0 3 7 21 41
12 19 10 3 3 1 0 3 0 0 0 0 0 0 0 0 0 0 0 15 23 33 24 10 2 9 8 3 18 26 45 9 20 74 69 34 109 64 73 68 42 0 0 0 4 4 0 5 10 9 7 12 44 55
4 6 3 4 6 8 0 0 0 0 0 0 0 0 0 0 0 1 2 34 24 12 0 1 46 5 10 37 78 94 54 62 68 92 86 91 59 0 56 59 44 41 20 15 14 22 16 16 0 0 0 0 26 43
6 5 0 1 0 1 0 0 0 0 0 0 0 0 0 0 0 8 19 20 8 9 5 7 31 41 0 51 86 255 212 125 67 159 147 42 20 22 33 64 29 24 51 47 56 34 6 0 0 0 0 0 36 73
2 0 0 0 0 0 0 0 0 0 0 0 0 0 0 0 3 7 18 14 5 10 5 12 27 92 10 48 106 620 577 288 99 68 263 172 131 149 147 67 18 30 37 31 4 0 0 0 0 0 0 0 6 1
0 0 0 0 0 0 0 0 0 0 0 0 0 0 1 18 54 67 43 22 15 34 59 34 84 252 125 37 14 19 389 249 32 37 57 60 40 28 29 46 60 50 21 5 4 0 0 0 0 0 0 0 0 0
0 0 0 0 0 0 0 0 0 0 0 0 0 0 0 59 52 35 60 98 65 137 292 366 114 29 24 15 39 62 312 125 8 3 18 51 22 30 25 30 0 0 3 3 0 0 0 0 0 0 0 0 0 0
0 0 0 0 0 0 0 0 0 0 0 0 0 5 42 46 45 70 66 101 181 39 49 88 155 109 106 111 49 63 170 115 93 38 30 31 26 1 5 27 17 0 0 0 0 0 0 0 0 0 0 0 0 0
0 0 0 0 0 0 0 0 2 0 2 5 6 28 40 25 40 75 162 244 204 47 47 95 92 89 105 58 22 5 26 57 88 51 46 43 48 30 17 9 0 0 0 0 0 0 0 0 0 0 0 0 0 0
0 0 0 0 0 0 0 0 0 0 12 27 58 72 48 55 23 4 27 34 216 111 47 84 78 54 41 13 3 16 41 59 65 124 40 43 39 26 18 0 0 0 0 0 0 0 0 0 0 0 0 0 0 0
0 0 0 0 0 0 0 0 0 0 0 5 24 50 42 108 195 49 48 63 89 34 15 17 44 73 48 29 32 54 32 38 47 90 48 38 21 5 1 0 0 0 0 0 0 0 0 0 0 0 0 0 0 0
0 0 0 0 0 0 0 0 0 3 3 1 98 79 20 7 2 3 19 41 35 0 4 1 16 32 48 130 109 31 45 72 99 40 47 47 33 29 1 0 0 0 0 0 0 0 0 0 0 0 0 0 2 5
0 0 0 0 0 0 0 0 0 0 0 0 0 19 3 73 35 50 34 15 5 10 22 21 7 4 16 24 37 22 59 65 43 37 37 27 34 15 0 0 0 0 0 0 0 0 0 0 0 4 0 0 2 12
0 0 0 0 0 0 0 0 0 0 0 0 0 0 11 23 1 19 37 17 40 59 43 19 13 14 144 113 143 111 73 56 57 54 56 30 9 0 0 0 0 0 0 0 0 0 0 1 1 6 5 5 0 5
0 0 0 0 0 0 0 0 0 0 0 0 0 0 0 0 0 4 33 24 2 7 19 26 30 41 112 120 121 87 71 51 33 34 40 9 14 1 1 0 0 0 0 0 0 0 1 4 10 10 9 11 13 37
CIN
0 0 0 0 0 0 0 0 0 0 0 0 0 0 0 0 0 0 0 0 0 0 0 0 0 0 0 0 0 0 0 0 0 0 0 0 0 0 0 0 0 0 0 0 0 0 0 0 0 0 0 -625 -85 -89
0 0 0 -1 -1 0 0 0 0 0 0 0 0 0 0 0 0 0 0 0 0 0 0 0 0 0 0 0 0 0 0 0 0 0 -4 -40 -1 0 0 0 0 0 -53 -3 -61 0 0 0 0 0 -302 -408 -13 -51
0 0 0 0 -1 0 0 0 0 0 0 0 0 0 0 0 0 0 0 0 0 0 0 0 0 0 0 0 0 0 0 0 0 -1 -1 -22 -5 -6 0 -13 0 0 0 0 0 0 0 0 0 -300 -231 -262 -277 -462
0 0 0 -1 0 0 0 -1 -3 0 0 0 0 0 0 0 0 0 0 0 0 0 0 0 0 0 0 0 0 0 0 0 0 -4 -2 -19 -2 -2 -1 -2 0 0 0 0 0 0 0 0 0 0 -195 -191 -269 -266
0 0 0 0 -1 -4 0 -1 -2 -4 0 0 0 0 0 0 0 0 0 0 0 0 0 0 0 0 0 -3 -28 -37 -23 -6 0 -2 -5 0 0 -21 -3 -10 0 0 0 0 0 0 0 0 0 0 -379 -168 -135 -85
0 0 0 0 0 -6 0 -10 0 0 0 0 0 0 0 0 0 0 0 0 0 0 0 0 0 0 0 0 0 -51 -48 -3 0 0 0 0 0 -7 -27 -1 0 0 0 0 0 0 0 0 -16 -92 -242 -128 -113 -30
0 0 0 0 0 -4 0 0 -12 0 0 0 0 0 0 0 0 0 0 0 0 0 0 0 0 0 0 0 0 -49 -28 -11 -5 0 -29 0 0 -10 -2 0 0 0 0 -15 0 0 0 -14 -115 -66 -105 -90 -70 -40
0 0 0 0 0 0 -2 0 0 0 0 0 0 0 0 0 0 0 0 -4 -1 0 0 0 0 0 0 0 0 -22 -11 -16 -20 0 -6 0 0 -11 -2 0 0 0 0 0 -1 -1 -14 -57 -56 -245 -112 -93 -187 -10
0 0 0 0 0 0 0 0 0 0 -1 0 0 0 0 0 0 0 0 -2 0 0 0 0 0 0 0 0 0 0 0 0 0 0 0 0 0 0 -1 -1 0 -3 -6 -2 -1 -14 -60 -52 -160 -164 -308 -48 -12 -10
0 0 0 0 0 0 0 0 0 0 0 0 0 0 0 0 0 0 0 0 0 0 0 0 0 0 0 0 0 0 0 -7 0 -1 -4 0 0 -1 -5 0 0 -19 0 0 -28 -28 -11 -190 -147 -244 -122 -26 -36 -32
0 0 0 0 0 -1 0 -2 0 0 0 0 0 0 0 0 0 0 0 0 0 0 0 0 0 0 0 0 0 0 0 0 0 -1 0 0 0 0 0 -2 0 -19 -19 -26 -14 -65 -114 -168 -341 -404 -220 -337 -154 -39
0 0 0 0 0 -1 0 0 0 0 0 0 0 0 0 0 0 0 0 0 0 0 0 0 -2 0 0 0 0 0 0 0 0 -1 0 0 0 -28 -15 -11 -5 -15 -113 -168 -52 -46 -24 -212 -260 -362 -121 -86 -68 -89
0 0 0 0 -4 0 0 0 -2 0 0 0 0 0 0 0 0 0 0 -20 -21 -41 -4 -7 0 0 -1 -9 0 0 0 0 -3 -3 -8 -17 -7 -24 -24 -23 -87 -83 -52 -68 -91 -26 -38 -83 -11 -3 -32 0 -37 -81
0 0 0 -1 -1 0 -1 0 0 0 0 0 0 0 0 0 0 0 -5 -3 -3 -36 -4 -14 0 0 0 0 0 0 -1 -6 -17 -4 0 0 -5 -33 -37 -73 -31 -38 -24 -32 -34 -47 -39 -38 -42 -49 -58 -47 -54 -61
0 0 0 -4 0 -1 0 0 0 -18 -1 -7 0 0 0 0 0 -9 0 -19 -17 -5 -18 0 0 0 0 0 -11 -8 0 -1 0 0 -1 -4 0 -48 -15 -25 -22 -8 -9 -11 -32 -45 -61 -46 -59 -43 -51 -60 -65 -59
0 0 0 0 0 -1 0 0 0 -7 -47 0 0 0 0 0 0 0 0 -32 -17 -25 -30 0 0 0 -3 0 -5 0 0 0 0 -1 0 -5 -54 -30 -32 -46 -38 -27 -3 -13 -12 -10 -14 -42 -43 -41 -20 -22 -30 -25
0 0 0 -4 -1 -1 0 0 -1 -7 -9 0 0 0 0 0 0 0 0 -1 -24 -16 -15 -4 0 0 -1 0 0 0 0 0 -1 -7 -26 -15 -20 -7 -26 -61 -11 -28 -18 -15 -31 -20 -20 -11 -13 -16 -37 -37 -45 -27
0 0 0 0 0 -1 -2 -2 0 0 0 0 0 0 0 0 0 0 -31 -22 -12 -18 -22 -7 0 0 0 0 -1 0 0 0 -15 -26 -28 -37 -17 -26 -4 0 0 0 0 0 0 -13 -11 -6 -2 -2 -2 -71 -53 -24
-1 0 0 0 -1 -1 -1 -1 0 0 0 0 0 0 0 0 0 0 0 -28 -23 -31 -23 -6 0 0 0 0 0 0 0 -14 -23 -43 -31 -18 -27 -33 -29 -22 0 0 0 0 0 0 0 0 0 0 -24 -18 -39 -22
0 0 -1 0 0 0 0 -2 0 0 0 0 0 0 0 0 0 0 0 -60 -39 -30 -51 -15 -4 0 -6 -4 -12 -23 -60 -50 -24 -35 -38 -41 -37 -17 -38 -23 -47 0 0 0 -25 -18 0 -4 -3 -10 -29 -51 -41 -19
-3 -3 -10 -10 -1 -1 -1 0 0 0 0 0 0 0 0 0 0 -1 -4 -61 -16 -12 -1 -1 -31 -31 -75 -18 -38 -48 -36 -23 -37 -17 -41 -45 -30 -1 -12 -14 -9 -29 -38 -5 -3 -9 -5 -8 0 0 0 0 -12 -9
0 0 0 0 0 0 0 0 0 0 0 0 0 0 0 0 0 -4 -21 -20 -11 -15 -33 -18 0 -79 -1 -53 -26 -22 -43 -45 -62 -19 -41 -36 -32 -40 -32 -62 -9 -32 -22 -10 -8 -7 -10 0 0 0 0 0 -5 0
0 0 0 0 0 0 0 0 0 0 0 0 0 0 0 -1 -1 -3 -7 -15 -5 -31 -21 -1 0 -95 -90 -9 -58 -22 -19 -24 -33 -20 -37 -37 -29 -20 -18 -27 -41 -33 -21 -13 -4 0 0 0 0 0 0 0 0 -1
0 0 0 0 0 0 0 0 0 0 0 0 0 0 0 -17 -7 -6 -7 -6 -8 -43 -44 -53 -107 -30 -46 -45 -51 -6 -23 -28 -74 -6 -17 -13 -20 -8 -7 -42 -22 -13 -18 -1 -2 0 0 0 0 0 0 0 0 0
0 0 0 0 0 0 0 0 0 0 0 0 0 0 -1 -13 -15 -24 -21 -11 -30 -35 -33 -35 -24 -22 -19 -17 -18 -57 -33 -19 -41 -4 -89 -21 -53 -9 -14 -41 -2 0 -2 -5 0 0 0 0 0 0 0 0 0 0
0 0 0 0 0 0 0 0 0 0 0 0 0 -2 -24 -12 -14 -22 -30 -30 -30 -16 -9 -33 -43 -40 -27 -20 -22 -25 -16 -21 -38 -72 -4 -13 -33 -22 -3 -31 -33 0 0 0 0 0 0 0 0 0 0 0 0 0
0 0 0 0 0 0 0 0 -1 -1 -4 -8 -4 -8 -8 -8 -19 -37 -53 -46 -32 -89 -115 -134 -49 -66 -59 -84 -6 -7 -76 -50 -71 -48 -52 -25 -49 -63 -18 -8 0 0 0 0 0 0 0 0 0 0 0 0 0 0
0 0 0 0 0 0 0 0 0 0 -7 -4 -7 -9 -15 -23 -13 -69 -81 -64 -40 -36 -24 -78 -158 -60 -58 -46 -24 -66 -160 -165 -74 -42 -67 -62 -53 -17 -13 0 0 0 0 0 0 0 0 0 0 0 0 0 0 0
0 0 0 0 0 0 0 0 0 0 0 -6 -6 -22 -43 -59 -43 -51 -44 -36 -17 -17 -5 -5 -12 -20 -47 -40 -80 -13 -24 -17 -34 -18 -21 -5 -4 -2 -1 0 0 0 0 0 0 0 0 0 0 0 0 0 0 0
0 0 0 0 0 0 0 0 0 -2 -2 -2 -20 -8 -37 -2 -1 -15 -10 -8 -22 0 -45 -7 -8 -6 -6 -7 -9 -38 -30 -35 -23 -28 -17 -12 -17 -8 -11 0 0 0 0 0 0 0 0 0 0 0 0 0 -12 0
0 0 0 0 0 0 0 0 0 0 0 0 0 -26 -15 -33 -53 -11 -11 -9 -21 -16 -3 -1 -2 -12 -12 -17 -18 -15 -12 -27 -14 -21 -18 -22 -7 -19 0 0 0 0 0 0 0 0 0 0 -1 -9 0 0 -10 -43
0 0 0 0 0 0 0 0 0 0 0 0 0 0 -15 -6 -2 -16 -38 0 0 -1 -2 -2 -6 -4 -31 -25 -17 -15 -14 -14 -8 -28 -17 -12 -16 0 0 0 0 0 0 0 0 0 0 -12 -10 -19 -36 -28 -2 -62
0 0 0 0 0 0 0 -1 0 0 0 0 0 0 0 0 0 -8 -53 -20 -17 -10 -5 -9 -8 -2 -17 -28 -35 -31 -29 -22 -17 -37 -15 -7 -10 -4 -1 0 0 0 0 0 0 0 -5 -7 -11 -8 -6 -12 -7 -1
Wind_Speed
nan nan nan nan nan nan nan nan nan nan nan nan nan nan nan nan nan nan nan nan nan nan nan nan nan nan nan nan nan nan nan nan nan nan nan nan nan nan nan nan nan nan nan nan nan nan nan nan nan nan nan nan nan 56
nan nan nan nan nan nan nan nan nan nan nan nan nan nan nan nan nan nan nan nan nan nan nan nan nan nan nan nan nan nan nan nan nan nan nan nan nan nan nan nan nan nan nan nan nan nan nan nan nan nan 48 42 53 59
nan nan nan nan nan nan nan nan nan nan nan nan nan nan nan nan nan nan nan nan nan nan nan nan nan nan nan nan nan nan nan nan nan nan nan nan nan nan nan nan nan nan nan nan nan nan nan nan nan 53 59 54 56 56
nan nan nan nan nan nan nan nan nan nan nan nan nan nan nan nan nan nan nan nan nan nan nan nan nan nan nan nan nan nan nan nan nan nan nan nan nan nan nan nan nan nan nan nan nan nan nan nan nan nan nan 63 57 56
nan nan nan nan nan nan nan nan nan nan nan nan nan nan nan nan nan nan nan nan nan nan nan nan nan nan nan nan nan nan nan nan nan nan nan nan nan nan nan nan nan nan nan nan nan nan nan nan nan nan nan 65 62 45
nan nan nan nan nan nan nan nan nan nan nan nan nan nan nan nan nan nan nan nan nan nan nan nan nan nan nan nan nan nan nan nan nan nan nan nan nan nan nan nan nan nan nan nan nan nan nan nan nan 76 70 67 66 57
nan nan nan nan nan nan nan nan nan nan nan nan nan nan nan nan nan nan nan nan nan nan nan nan nan nan nan nan nan nan nan nan nan nan nan nan nan nan nan nan nan nan nan nan nan nan nan nan nan 65 68 70 70 50
nan nan nan nan nan nan nan nan nan nan nan nan nan nan nan nan nan nan nan nan nan nan nan nan nan nan nan nan nan nan nan nan nan nan nan nan nan nan nan nan nan nan nan nan nan nan nan 47 47 nan nan 80 nan 62
nan nan nan nan nan nan nan nan nan nan nan nan nan nan nan nan nan nan nan nan nan nan nan nan nan nan nan nan nan nan nan nan nan nan nan nan nan nan nan nan nan nan nan nan nan 26 27 nan nan nan nan nan 21 44
nan nan nan nan nan nan nan nan nan nan nan nan nan nan nan nan nan nan nan nan nan nan nan nan nan nan nan nan nan nan nan nan nan nan nan nan nan nan nan nan nan nan nan nan nan 35 34 27 42 nan nan 54 40 48
nan nan nan nan nan nan nan nan nan nan nan nan nan nan nan nan nan nan nan nan nan nan nan nan nan nan nan nan nan nan nan nan nan nan nan nan nan nan nan nan nan nan nan nan nan nan 37 nan nan nan 52 nan 37 24
nan nan nan nan nan nan nan nan nan nan nan nan nan nan nan nan nan nan nan nan nan nan nan nan nan nan nan nan nan nan nan nan nan nan nan nan nan nan nan nan nan nan nan nan 25 37 43 nan nan nan nan nan 24 15
nan nan nan nan nan nan nan nan nan nan nan nan nan nan nan nan nan nan nan nan nan nan nan nan nan nan nan nan nan nan nan nan nan nan nan nan nan nan 22 25 17 17 21 34 37 23 27 nan 19 16 10 16 8 20
nan nan nan nan nan nan nan nan nan nan nan nan nan nan nan nan nan nan nan nan nan nan nan nan nan nan nan nan nan nan nan nan nan nan nan nan nan 9 8 7 5 7 11 2 2 6 6 7 9 14 19 22 26 27
nan nan nan nan nan nan nan nan nan nan nan nan nan nan nan nan nan nan nan nan nan nan nan nan nan nan nan nan nan nan nan nan nan nan nan nan nan 3 7 8 8 11 11 14 13 16 9 9 12 17 23 25 28 29
nan nan nan nan nan nan nan nan nan nan nan nan nan nan nan nan nan nan nan nan nan nan nan nan nan nan nan nan nan nan nan nan nan nan nan nan nan 12 5 4 6 9 11 14 16 14 17 17 14 15 19 20 22 26
nan nan nan nan nan nan nan nan nan nan nan nan nan nan nan nan nan nan nan nan nan nan nan nan nan nan nan nan nan nan nan nan nan nan nan nan nan nan 3 nan nan nan nan nan 13 15 16 12 13 18 21 19 20 26
nan nan nan nan nan nan nan nan nan nan nan nan nan nan nan nan nan nan nan nan nan nan nan nan nan nan nan nan nan nan nan nan nan nan nan nan nan nan nan nan nan nan nan nan nan nan 9 nan nan nan nan nan 15 nan
nan nan nan nan nan nan nan nan nan nan nan nan nan nan nan nan nan nan nan nan nan nan nan nan nan nan nan nan nan nan nan nan nan nan 9 6 8 nan nan nan nan nan nan nan nan nan nan nan nan nan nan nan nan nan
nan nan nan nan nan nan nan nan nan nan nan nan nan nan nan nan nan nan nan nan nan nan nan nan nan nan nan nan nan nan nan nan nan nan nan nan 6 nan nan nan nan nan nan nan nan nan nan nan nan nan nan nan nan nan
nan nan nan nan nan nan nan nan nan nan nan nan nan nan nan nan nan nan nan nan nan nan nan nan nan nan nan nan nan nan nan nan nan nan nan nan nan nan nan nan nan nan nan nan nan nan nan nan nan nan nan nan nan nan
nan nan nan nan nan nan nan nan nan nan nan nan nan nan nan nan nan nan nan nan nan nan nan nan nan nan nan nan nan 1 4 7 nan 7 5 nan nan nan nan nan nan nan nan nan nan nan nan nan nan nan nan nan nan nan
nan nan nan nan nan nan nan nan nan nan nan nan nan nan nan nan nan nan nan nan nan nan nan nan nan nan nan nan 13 11 7 7 nan nan 6 2 9 5 6 nan nan nan nan nan nan nan nan nan nan nan nan nan nan nan
nan nan nan nan nan nan nan nan nan nan nan nan nan nan nan nan nan nan nan nan nan nan nan nan nan 17 16 nan nan nan 10 9 nan nan nan nan nan nan nan nan nan nan nan nan nan nan nan nan nan nan nan nan nan nan
nan nan nan nan nan nan nan nan nan nan nan nan nan nan nan nan nan nan nan nan nan 15 20 18 18 nan nan nan nan nan 12 8 nan nan nan nan nan nan nan nan nan nan nan nan nan nan nan nan nan nan nan nan nan nan
nan nan nan nan nan nan nan nan nan nan nan nan nan nan nan nan nan nan nan 16 15 nan nan nan 24 24 22 18 nan nan 10 11 nan nan nan nan nan nan nan nan nan nan nan nan nan nan nan nan nan nan nan nan nan nan
nan nan nan nan nan nan nan nan nan nan nan nan nan nan nan nan nan nan 17 19 18 nan nan nan nan nan 18 nan nan nan nan nan nan nan nan nan nan nan nan nan nan nan nan nan nan nan nan nan nan nan nan nan nan nan
nan nan nan nan nan nan nan nan nan nan nan nan nan nan nan nan nan nan nan nan 13 23 nan nan nan nan nan nan nan nan nan nan nan 13 nan nan nan nan nan nan nan nan nan nan nan nan nan nan nan nan nan nan nan nan
nan nan nan nan nan nan nan nan nan nan nan nan nan nan nan 15 17 nan nan nan nan nan nan nan nan nan nan nan nan nan nan nan nan nan nan nan nan nan nan nan nan nan nan nan nan nan nan nan nan nan nan nan nan nan
nan nan nan nan nan nan nan nan nan nan nan nan nan nan nan nan nan nan nan nan nan nan nan nan nan nan nan 16 15 nan nan nan nan nan nan nan nan nan nan nan nan nan nan nan nan nan nan nan nan nan nan nan nan nan
nan nan nan nan nan nan nan nan nan nan nan nan nan nan nan nan nan nan nan nan nan nan nan nan nan nan nan nan nan nan nan nan nan nan nan nan nan nan nan nan nan nan nan nan nan nan nan nan nan nan nan nan nan nan
nan nan nan nan nan nan nan nan nan nan nan nan nan nan nan nan nan nan nan nan nan nan nan nan nan nan 19 13 11 11 nan nan nan nan nan nan nan nan nan nan nan nan nan nan nan nan nan nan nan nan nan nan nan nan
nan nan nan nan nan nan nan nan nan nan nan nan nan nan nan nan nan nan nan nan nan nan nan nan nan nan 13 12 10 nan nan nan nan nan nan nan nan nan nan nan nan nan nan nan nan nan nan nan nan nan nan nan nan nan
Wind_Direction
nan nan nan nan nan nan nan nan nan nan nan nan nan nan nan nan nan nan nan nan nan nan nan nan nan nan nan nan nan nan nan nan nan nan nan nan nan nan nan nan nan nan nan nan nan nan nan nan nan nan nan nan nan 198
nan nan nan nan nan nan nan nan nan nan nan nan nan nan nan nan nan nan nan nan nan nan nan nan nan nan nan nan nan nan nan nan nan nan nan nan nan nan nan nan nan nan nan nan nan nan nan nan nan nan 198 202 195 198
nan nan nan nan nan nan nan nan nan nan nan nan nan nan nan nan nan nan nan nan nan nan nan nan nan nan nan nan nan nan nan nan nan nan nan nan nan nan nan nan nan nan nan nan nan nan nan nan nan 196 193 193 185 184
nan nan nan nan nan nan nan nan nan nan nan nan nan nan nan nan nan nan nan nan nan nan nan nan nan nan nan nan nan nan nan nan nan nan nan nan nan nan nan nan nan nan nan nan nan nan nan nan nan nan nan 183 183 184
nan nan nan nan nan nan nan nan nan nan nan nan nan nan nan nan nan nan nan nan nan nan nan nan nan nan nan nan nan nan nan nan nan nan nan nan nan nan nan nan nan nan nan nan nan nan nan nan nan nan nan 184 182 179
nan nan nan nan nan nan nan nan nan nan nan nan nan nan nan nan nan nan nan nan nan nan nan nan nan nan nan nan nan nan nan nan nan nan nan nan nan nan nan nan nan nan nan nan nan nan nan nan nan 191 193 195 187 189
nan nan nan nan nan nan nan nan nan nan nan nan nan nan nan nan nan nan nan nan nan nan nan nan nan nan nan nan nan nan nan nan nan nan nan nan nan nan nan nan nan nan nan nan nan nan nan nan nan 194 209 206 198 181
nan nan nan nan nan nan nan nan nan nan nan nan nan nan nan nan nan nan nan nan nan nan nan nan nan nan nan nan nan nan nan nan nan nan nan nan nan nan nan nan nan nan nan nan nan nan nan 194 187 nan nan 213 nan 161
nan nan nan nan nan nan nan nan nan nan nan nan nan nan nan nan nan nan nan nan nan nan nan nan nan nan nan nan nan nan nan nan nan nan nan nan nan nan nan nan nan nan nan nan nan 197 206 nan nan nan nan nan 243 187
nan nan nan nan nan nan nan nan nan nan nan nan nan nan nan nan nan nan nan nan nan nan nan nan nan nan nan nan nan nan nan nan nan nan nan nan nan nan nan nan nan nan nan nan nan 187 198 201 211 nan nan 235 241 193
nan nan nan nan nan nan nan nan nan nan nan nan nan nan nan nan nan nan nan nan nan nan nan nan nan nan nan nan nan nan nan nan nan nan nan nan nan nan nan nan nan nan nan nan nan nan 204 nan nan nan 248 nan 304 64
nan nan nan nan nan nan nan nan nan nan nan nan nan nan nan nan nan nan nan nan nan nan nan nan nan nan nan nan nan nan nan nan nan nan nan nan nan nan nan nan nan nan nan nan 112 200 216 nan nan nan nan nan 157 83
nan nan nan nan nan nan nan nan nan nan nan nan nan nan nan nan nan nan nan nan nan nan nan nan nan nan nan nan nan nan nan nan nan nan nan nan nan nan 86 72 80 72 59 69 82 84 65 nan 96 62 76 107 263 246
nan nan nan nan nan nan nan nan nan nan nan nan nan nan nan nan nan nan nan nan nan nan nan nan nan nan nan nan nan nan nan nan nan nan nan nan nan 95 98 91 106 127 128 352 275 260 248 235 259 274 264 263 266 256
nan nan nan nan nan nan nan nan nan nan nan nan nan nan nan nan nan nan nan nan nan nan nan nan nan nan nan nan nan nan nan nan nan nan nan nan nan 120 184 205 204 209 205 224 243 255 237 214 212 230 245 251 253 255
nan nan nan nan nan nan nan nan nan nan nan nan nan nan nan nan nan nan nan nan nan nan nan nan nan nan nan nan nan nan nan nan nan nan nan nan nan 116 140 154 136 159 193 219 219 231 240 232 240 247 241 237 260 267
nan nan nan nan nan nan nan nan nan nan nan nan nan nan nan nan nan nan nan nan nan nan nan nan nan nan nan nan nan nan nan nan nan nan nan nan nan nan 147 nan nan nan nan nan 232 240 257 259 263 256 253 244 244 246
nan nan nan nan nan nan nan nan nan nan nan nan nan nan nan nan nan nan nan nan nan nan nan nan nan nan nan nan nan nan nan nan nan nan nan nan nan nan nan nan nan nan nan nan nan nan 230 nan nan nan nan nan 244 nan
nan nan nan nan nan nan nan nan nan nan nan nan nan nan nan nan nan nan nan nan nan nan nan nan nan nan nan nan nan nan nan nan nan nan 121 118 52 nan nan nan nan nan nan nan nan nan nan nan nan nan nan nan nan nan
nan nan nan nan nan nan nan nan nan nan nan nan nan nan nan nan nan nan nan nan nan nan nan nan nan nan nan nan nan nan nan nan nan nan nan nan 123 nan nan nan nan nan nan nan nan nan nan nan nan nan nan nan nan nan
nan nan nan nan nan nan nan nan nan nan nan nan nan nan nan nan nan nan nan nan nan nan nan nan nan nan nan nan nan nan nan nan nan nan nan nan nan nan nan nan nan nan nan nan nan nan nan nan nan nan nan nan nan nan
nan nan nan nan nan nan nan nan nan nan nan nan nan nan nan nan nan nan nan nan nan nan nan nan nan nan nan nan nan 183 113 101 nan 134 144 nan nan nan nan nan nan nan nan nan nan nan nan nan nan nan nan nan nan nan
nan nan nan nan nan nan nan nan nan nan nan nan nan nan nan nan nan nan nan nan nan nan nan nan nan nan nan nan 145 158 194 221 nan nan 222 244 168 129 60 nan nan nan nan nan nan nan nan nan nan nan nan nan nan nan
nan nan nan nan nan nan nan nan nan nan nan nan nan nan nan nan nan nan nan nan nan nan nan nan nan 175 156 nan nan nan 125 146 nan nan nan nan nan nan nan nan nan nan nan nan nan nan nan nan nan nan nan nan nan nan
nan nan nan nan nan nan nan nan nan nan nan nan nan nan nan nan nan nan nan nan nan 182 177 182 182 nan nan nan nan nan 169 173 nan nan nan nan nan nan nan nan nan nan nan nan nan nan nan nan nan nan nan nan nan nan
nan nan nan nan nan nan nan nan nan nan nan nan nan nan nan nan nan nan nan 181 180 nan nan nan 170 181 178 182 nan nan 172 186 nan nan nan nan nan nan nan nan nan nan nan nan nan nan nan nan nan nan nan nan nan nan
nan nan nan nan nan nan nan nan nan nan nan nan nan nan nan nan nan nan 176 181 178 nan nan nan nan nan 176 nan nan nan nan nan nan nan nan nan nan nan nan nan nan nan nan nan nan nan nan nan nan nan nan nan nan nan
nan nan nan nan nan nan nan nan nan nan nan nan nan nan nan nan nan nan nan nan 183 191 nan nan nan nan nan nan nan nan nan nan nan 175 nan nan nan nan nan nan nan nan nan nan nan nan nan nan nan nan nan nan nan nan
nan nan nan nan nan nan nan nan nan nan nan nan nan nan nan 159 172 nan nan nan nan nan nan nan nan nan nan nan nan nan nan nan nan nan nan nan nan nan nan nan nan nan nan nan nan nan nan nan nan nan nan nan nan nan
nan nan nan nan nan nan nan nan nan nan nan nan nan nan nan nan nan nan nan nan nan nan nan nan nan nan nan 182 175 nan nan nan nan nan nan nan nan nan nan nan nan nan nan nan nan nan nan nan nan nan nan nan nan nan
nan nan nan nan nan nan nan nan nan nan nan nan nan nan nan nan nan nan nan nan nan nan nan nan nan nan nan nan nan nan nan nan nan nan nan nan nan nan nan nan nan nan nan nan nan nan nan nan nan nan nan nan nan nan
nan nan nan nan nan nan nan nan nan nan nan nan nan nan nan nan nan nan nan nan nan nan nan nan nan nan 181 185 176 188 nan nan nan nan nan nan nan nan nan nan nan nan nan nan nan nan nan nan nan nan nan nan nan nan
nan nan nan nan nan nan nan nan nan nan nan nan nan nan nan nan nan nan nan nan nan nan nan nan nan nan 186 192 216 nan nan nan nan nan nan nan nan nan nan nan nan nan nan nan nan nan nan nan nan nan nan nan nan nan